Location: Rounton
(54.4000°N, 1.3500°W)
Time: 02:22:20
(UTC+01:00)

Kosmos-337 - Visible Passes

Search period start: 01 July 2022 00:00
Search period end: 11 July 2022 00:00
Orbit: 1467 x 1552 km, 74.0° (Epoch: 30 June)

Date Brightness Start Highest point End Pass type
(mag) Time Alt. Az. Time Alt. Az. Time Alt. Az.
01 Jul ? 01:44:40 10° NNW 01:53:55 74° ENE 02:03:01 10° SE visible
01 Jul ? 22:59:13 10° NNW 23:06:40 26° NNE 23:14:05 10° ENE visible
02 Jul ? 00:58:43 10° NNW 01:07:46 55° NE 01:16:40 10° SE visible
02 Jul ? 02:57:41 10° NNW 03:06:32 55° WSW 03:15:16 10° S visible
03 Jul ? 00:12:45 10° NNW 00:21:23 42° NE 00:29:54 10° ESE visible
03 Jul ? 02:11:41 10° NNW 02:20:54 77° WSW 02:29:56 10° SSE visible
03 Jul ? 23:26:40 10° NNW 23:34:47 33° NNE 23:42:49 10° E visible
04 Jul ? 01:25:45 10° NNW 01:35:01 79° ENE 01:44:08 10° SSE visible
04 Jul ? 03:24:58 10° NW 03:32:54 35° W 03:40:45 10° SSW visible
04 Jul ? 22:40:24 10° NNW 22:47:59 27° NNE 22:55:30 10° E visible
05 Jul ? 00:39:49 10° NNW 00:48:55 58° NE 00:57:52 10° SE visible
05 Jul ? 02:38:48 10° NNW 02:47:32 51° WSW 02:56:08 10° S visible
05 Jul ? 23:53:51 10° NNW 00:02:36 44° NE 00:11:13 10° ESE visible
06 Jul ? 01:52:47 10° NNW 02:01:56 72° WSW 02:10:56 10° SSE visible
06 Jul ? 23:07:48 10° NNW 23:16:02 35° NE 23:24:11 10° E visible
07 Jul ? 01:06:50 10° NNW 01:16:07 84° ENE 01:25:13 10° SSE visible
07 Jul ? 03:06:09 10° NW 03:13:50 32° W 03:21:25 10° SSW visible
07 Jul ? 22:21:35 10° NNW 22:29:17 28° NNE 22:36:54 10° E visible
08 Jul ? 00:20:55 10° NNW 00:30:04 62° NE 00:39:03 10° SE visible
08 Jul ? 02:19:56 10° NNW 02:28:30 47° W 02:36:15 13° SSW visible
08 Jul ? 23:34:57 10° NNW 23:43:47 47° NE 23:52:29 10° ESE visible
09 Jul ? 01:33:53 10° NNW 01:42:58 67° WSW 01:50:52 14° S visible
09 Jul ? 03:34:03 10° NW 03:39:47 19° W 03:45:28 10° SW visible
09 Jul ? 22:48:56 10° NNW 22:57:17 36° NE 23:05:32 10° ESE visible
10 Jul ? 00:47:56 10° NNW 00:57:12 89° ENE 01:05:32 13° SSE visible
10 Jul ? 02:47:20 10° NW 02:54:44 29° W 03:01:46 11° SW visible
